Weather History for KSME - February, 2014

Change the Weather History Date:

Monday, February 17, 2014

  Actual Average Record
Temperature  
Mean Temperature 44 °F -  
Max Temperature 59 °F 50 °F 69 °F (2011)
Min Temperature 28 °F 31 °F 10 °F (2015)
Degree Days  
Heating Degree Days 22    
Moisture  
Dew Point 30 °F    
Average Humidity 69    
Maximum Humidity 94    
Minimum Humidity 34    
Precipitation  
Precipitation 0.24 in - - ()
Sea Level Pressure  
Sea Level Pressure 30.09 in    
Wind  
Wind Speed 6 mph (SSE)    
Max Wind Speed 20 mph    
Max Gust Speed 32 mph    
Visibility 10 miles    
Events Rain    
Averages and records for this station are not official NWS values.
T = Trace of Precipitation, MM = Missing Value Source: NWS Daily Summary

Daily Weather History Graph

Daily Weather History Graph

Search for Another Location

Airport or City:

Trip Planner

Search our weather history database for the weather conditions in past years. The results will help you decide how hot, cold, wet, or windy it might be!

Date:

Astronomy

Feb. 17, 2014 Rise Set
Actual Time 7:24 AM EST 6:20 PM EST
Civil Twilight 6:58 AM EST 6:47 PM EST
Nautical Twilight 6:27 AM EST 7:17 PM EST
Astronomical Twilight 5:57 AM EST 7:47 PM EST
Moon 9:09 PM EST (2/17) 8:29 AM EST (2/17)
Length of Visible Light 11h 48m
Length of Day
10h 55m
Waning Gibbous, 93% of the Moon is Illuminated
Feb 17
Waning Gibbous
Feb 22
Last Quarter
Mar 1
New
Mar 8
First Quarter
Mar 16
Full

Hourly Weather History & Observations

Time (EST) Temp. Windchill Dew Point Humidity Pressure Visibility Wind Dir Wind Speed Gust Speed Precip Events Conditions
12:15 AM 30.2 °F - 24.8 °F 80% 30.25 in 10.0 mi Calm Calm - N/A   Clear
12:35 AM 30.2 °F 25.4 °F 24.8 °F 80% 30.24 in 10.0 mi ENE 4.6 mph - N/A   Clear
12:55 AM 30.2 °F - 23.0 °F 75% 30.25 in 10.0 mi Calm Calm - N/A   Clear
1:15 AM 30.2 °F - 23.0 °F 75% 30.25 in 10.0 mi Calm Calm - N/A   Clear
1:35 AM 30.2 °F 26.7 °F 23.0 °F 75% 30.24 in 10.0 mi ENE 3.5 mph - N/A   Clear
1:55 AM 30.2 °F 26.7 °F 23.0 °F 75% 30.24 in 10.0 mi East 3.5 mph - N/A   Clear
2:15 AM 30.2 °F 25.4 °F 23.0 °F 75% 30.24 in 10.0 mi East 4.6 mph - N/A   Clear
2:35 AM 28.4 °F 24.6 °F 23.0 °F 80% 30.24 in 10.0 mi ENE 3.5 mph - N/A   Clear
2:55 AM 28.4 °F 23.3 °F 23.0 °F 80% 30.23 in 10.0 mi ENE 4.6 mph - N/A   Clear
3:15 AM 28.4 °F - 23.0 °F 80% 30.23 in 10.0 mi Calm Calm - N/A   Clear
3:35 AM 28.4 °F 24.6 °F 23.0 °F 80% 30.23 in 10.0 mi ENE 3.5 mph - N/A   Clear
3:55 AM 28.4 °F 23.3 °F 23.0 °F 80% 30.23 in 10.0 mi ENE 4.6 mph - N/A   Clear
4:15 AM 28.4 °F 23.3 °F 23.0 °F 80% 30.22 in 10.0 mi ENE 4.6 mph - N/A   Clear
4:35 AM 28.4 °F 24.6 °F 23.0 °F 80% 30.22 in 10.0 mi East 3.5 mph - N/A   Clear
4:55 AM 28.4 °F 24.6 °F 23.0 °F 80% 30.22 in 10.0 mi ENE 3.5 mph - N/A   Clear
5:15 AM 28.4 °F 24.6 °F 23.0 °F 80% 30.22 in 10.0 mi East 3.5 mph - N/A   Clear
5:35 AM 28.4 °F 23.3 °F 23.0 °F 80% 30.22 in 10.0 mi East 4.6 mph - N/A   Clear
5:55 AM 28.4 °F 24.6 °F 23.0 °F 80% 30.22 in 10.0 mi East 3.5 mph - N/A   Clear
6:15 AM 28.4 °F 22.2 °F 23.0 °F 80% 30.22 in 10.0 mi East 5.8 mph - N/A   Clear
6:35 AM 28.4 °F 23.3 °F 23.0 °F 80% 30.22 in 10.0 mi East 4.6 mph - N/A   Clear
6:55 AM 28.4 °F 23.3 °F 23.0 °F 80% 30.21 in 10.0 mi East 4.6 mph - N/A   Scattered Clouds
7:15 AM 28.4 °F 23.3 °F 23.0 °F 80% 30.21 in 10.0 mi East 4.6 mph - N/A   Scattered Clouds
7:35 AM 28.4 °F 23.3 °F 23.0 °F 80% 30.20 in 10.0 mi East 4.6 mph - N/A   Clear
7:55 AM 28.4 °F 23.3 °F 23.0 °F 80% 30.20 in 10.0 mi East 4.6 mph - N/A   Clear
8:15 AM 30.2 °F 26.7 °F 23.0 °F 75% 30.21 in 10.0 mi ESE 3.5 mph - N/A   Clear
8:35 AM 30.2 °F 25.4 °F 24.8 °F 80% 30.21 in 10.0 mi East 4.6 mph - N/A   Clear
8:55 AM 30.2 °F 25.4 °F 24.8 °F 80% 30.20 in 10.0 mi East 4.6 mph - N/A   Clear
9:15 AM 32.0 °F 26.4 °F 24.8 °F 75% 30.20 in 10.0 mi ESE 5.8 mph - N/A   Clear
9:35 AM 32.0 °F 27.5 °F 26.6 °F 80% 30.18 in 10.0 mi ESE 4.6 mph - N/A   Clear
9:55 AM 32.0 °F 26.4 °F 26.6 °F 80% 30.16 in 10.0 mi ESE 5.8 mph - N/A   Clear
10:15 AM 33.8 °F 28.6 °F 26.6 °F 75% 30.15 in 10.0 mi ESE 5.8 mph - N/A   Clear
10:35 AM 33.8 °F 30.8 °F 28.4 °F 81% 30.14 in 10.0 mi ESE 3.5 mph - N/A   Clear
10:55 AM 35.6 °F 32.8 °F 28.4 °F 75% 30.14 in 10.0 mi ESE 3.5 mph - N/A   Clear
11:15 AM 37.4 °F 33.8 °F 30.2 °F 75% 30.14 in 10.0 mi SE 4.6 mph - N/A   Clear
11:35 AM 39.2 °F 34.2 °F 30.2 °F 70% 30.12 in 10.0 mi SSE 6.9 mph - N/A   Clear
11:55 AM 41.0 °F 36.4 °F 30.2 °F 65% 30.10 in 10.0 mi SE 6.9 mph - N/A   Clear
12:15 PM 44.6 °F 40.2 °F 30.2 °F 57% 30.08 in 10.0 mi SSE 8.1 mph - N/A   Scattered Clouds
12:35 PM 46.4 °F 44.3 °F 32.0 °F 57% 30.06 in 10.0 mi South 4.6 mph - N/A   Scattered Clouds
12:55 PM 50.0 °F - 32.0 °F 50% 30.03 in 10.0 mi SSE 9.2 mph - N/A   Scattered Clouds
1:15 PM 53.6 °F - 30.2 °F 41% 30.01 in 10.0 mi South 13.8 mph - N/A   Clear
1:35 PM 55.4 °F - 30.2 °F 38% 29.98 in 10.0 mi South 11.5 mph 17.3 mph N/A   Clear
1:55 PM 57.2 °F - 30.2 °F 36% 29.96 in 10.0 mi South 9.2 mph 16.1 mph N/A   Scattered Clouds
2:15 PM 57.2 °F - 30.2 °F 36% 29.93 in 10.0 mi South 11.5 mph 17.3 mph N/A   Mostly Cloudy
2:35 PM 57.2 °F - 30.2 °F 36% 29.92 in 10.0 mi South 10.4 mph - N/A   Overcast
2:55 PM 57.2 °F - 30.2 °F 36% 29.90 in 10.0 mi South 13.8 mph - N/A   Overcast
3:15 PM 59.0 °F - 30.2 °F 34% 29.88 in 10.0 mi South 12.7 mph 25.3 mph N/A   Overcast
3:35 PM 59.0 °F - 30.2 °F 34% 29.87 in 10.0 mi South 10.4 mph 20.7 mph N/A   Overcast
3:55 PM 59.0 °F - 30.2 °F 34% 29.87 in 10.0 mi South 12.7 mph 19.6 mph N/A   Overcast
4:15 PM 57.2 °F - 30.2 °F 36% 29.87 in 10.0 mi South 12.7 mph 18.4 mph N/A   Overcast
4:35 PM 57.2 °F - 32.0 °F 38% 29.86 in 10.0 mi South 13.8 mph 21.9 mph N/A   Overcast
4:55 PM 55.4 °F - 32.0 °F 41% 29.84 in 10.0 mi South 16.1 mph 28.8 mph N/A   Overcast
5:15 PM 55.4 °F - 32.0 °F 41% 29.83 in 10.0 mi SSW 18.4 mph 26.5 mph N/A   Overcast
5:35 PM 55.4 °F - 32.0 °F 41% 29.84 in 10.0 mi SSW 12.7 mph 24.2 mph N/A   Overcast
5:55 PM 51.8 °F - 37.4 °F 58% 29.87 in 10.0 mi WSW 9.2 mph 16.1 mph 0.01 in Rain Light Rain
6:15 PM 51.8 °F - 39.2 °F 62% 29.87 in 10.0 mi SW 11.5 mph 18.4 mph 0.01 in Rain Rain
6:35 PM 50.0 °F - 42.8 °F 76% 29.89 in 7.0 mi SW 11.5 mph 17.3 mph 0.05 in Rain Rain
6:55 PM 50.0 °F - 44.6 °F 82% 29.90 in 7.0 mi SW 12.7 mph 18.4 mph 0.09 in Rain Rain
7:15 PM 48.2 °F - 46.4 °F 93% 29.94 in 7.0 mi West 9.2 mph - 0.07 in Rain Rain
7:35 PM 48.2 °F - 46.4 °F 93% 29.95 in 7.0 mi WSW 9.2 mph - 0.13 in Rain Rain
7:55 PM 50.0 °F - 46.4 °F 87% 29.95 in 10.0 mi SW 5.8 mph - 0.13 in   Overcast
8:15 PM 48.2 °F - 46.4 °F 93% 29.94 in 10.0 mi SSW 4.6 mph - N/A   Mostly Cloudy
8:35 PM 50.0 °F - 48.2 °F 94% 29.97 in 10.0 mi WSW 10.4 mph 17.3 mph 0.01 in   Mostly Cloudy
8:55 PM 50.0 °F - 46.4 °F 87% 30.01 in 10.0 mi WNW 19.6 mph 28.8 mph 0.01 in   Overcast
9:15 PM 46.4 °F 39.8 °F 41.0 °F 81% 30.05 in 10.0 mi West 16.1 mph 32.2 mph N/A   Overcast
9:35 PM 46.4 °F 39.2 °F 37.4 °F 71% 30.08 in 10.0 mi West 18.4 mph 27.6 mph N/A   Overcast
9:55 PM 44.6 °F 36.9 °F 35.6 °F 71% 30.10 in 10.0 mi West 18.4 mph 25.3 mph N/A   Mostly Cloudy
10:15 PM 42.8 °F 38.0 °F 35.6 °F 76% 30.10 in 10.0 mi West 8.1 mph - N/A   Scattered Clouds
10:35 PM 42.8 °F 36.6 °F 35.6 °F 76% 30.10 in 10.0 mi West 11.5 mph - N/A   Overcast
10:55 PM 42.8 °F 37.0 °F 35.6 °F 76% 30.12 in 10.0 mi West 10.4 mph 20.7 mph N/A   Overcast
11:15 PM 42.8 °F 35.8 °F 33.8 °F 70% 30.13 in 10.0 mi West 13.8 mph 18.4 mph N/A   Overcast
11:35 PM 42.8 °F 36.6 °F 33.8 °F 70% 30.13 in 10.0 mi West 11.5 mph 17.3 mph N/A   Mostly Cloudy
11:55 PM 41.0 °F 35.2 °F 33.8 °F 76% 30.13 in 10.0 mi West 9.2 mph - N/A   Scattered Clouds